Location: ????????
(55.7667°N, 37.4833°E)
Time: 10:46:06
(UTC+00:00)

Nadezhda 3 Rocket - Pass Details

Date: 19 May 2025
Orbit: 957 x 997 km, 82.9° (Epoch: 13 June)

Event Time Altitude Azimuth Distance (km) Brightness Sun altitude
Exits shadow 19:37:19 13° 166° (SSE) 2,477 5.5 -10.8°
Maximum altitude 19:42:41 55° 93° (E) 1,160 4.3 -11.1°
Drops below altitude 10° 19:48:46 10° 17° (NNE) 2,741 7.1 -11.5°
Sets 19:51:21 0° 14° (NNE) 3,699 8.0 -11.6°
